Regional Weather Roundup
Issued by NWS

Home | Current Version | Previous Version | Graphics & Text | Print | Product List | Glossary On
Versions: 1 2 3 4 5 6 7 8 9 10 11 12 13 14 15 16 17 18 19 20 21 22 23 24 25 26 27 28 29 30 31 32 33 34 35 36 37 38 39 40 41 42 43 44 45 46 47 48 49 50
000
ASUS43 KLMK 250710
RWRKY
KENTUCKY REGIONAL WEATHER ROUNDUP
NATIONAL WEATHER SERVICE LOUISVILLE KY
300 AM EDT SAT OCT 25 2014

NOTE "FAIR" INDICATES FEW OR NO CLOUDS BELOW 12,000 FEET
WITH NO SIGNIFICANT WEATHER AND/OR OBSTRUCTIONS TO VISIBILITY.

KYZ001>023-026-027-061>063-070>075-250800-
WESTERN AND SOUTH CENTRAL KENTUCKY

CITY           SKY/WX    TMP DP  RH WIND       PRES   REMARKS
PADUCAH        CLEAR     53  50  89 CALM      30.04S
HENDERSON      MOCLDY   N/A N/A N/A S5        30.04F
OWENSBORO      PTCLDY    51  50  97 S3        30.06R
HOPKINSVILLE   PTCLDY    49  49 100 CALM      30.07F
BOWLING GREEN  CLEAR     45  42  89 CALM      30.08S FOG
GLASGOW        CLEAR     43  43 100 CALM      30.08S FOG
$$

KYZ024-025-028>034-038-045-046-053-250800-
NORTH CENTRAL KENTUCKY

CITY           SKY/WX    TMP DP  RH WIND       PRES   REMARKS
LOUISVILLE/SDF PTCLDY    49  46  90 S3        30.05S
LOUISVILLE/LOU CLEAR     48  45  89 CALM      30.05S FOG
FORT KNOX      CLEAR     47  46  95 CALM      30.04F
$$

KYZ035>037-039>044-047>052-055>060-089>105-250800-
NORTHEAST KENTUCKY

CITY           SKY/WX    TMP DP  RH WIND       PRES   REMARKS
LEXINGTON      CLEAR     45  40  82 S6        30.06S
COVINGTON      CLEAR     46  40  79 CALM      30.03S
FRANKFORT      CLEAR     43  40  89 CALM      30.04F
$$

KYZ054-064>069-076>088-106>120-250800-
SOUTHEAST KENTUCKY

CITY           SKY/WX    TMP DP  RH WIND       PRES   REMARKS
JACKSON        CLEAR     46  41  82 S5        30.07S
LONDON         CLEAR     43  39  86 CALM      30.08F
SOMERSET       CLEAR     39  39 100 CALM      30.09F
MIDDLESBORO    CLEAR     38  38  99 CALM      30.11F
MONTICELLO     SUNNY     40  39  96 CALM      30.10F FOG
$$




USA.gov is the U.S. government's official web portal to all federal, state and local government web resources and services.